Location: Paderno d�Adda
(45.6667°N, 9.4333°E)
Time: 10:07:06
(UTC+00:00)

CENTAUR R/B - Visible Passes

Search period start: 17 January 2021 00:00
Search period end: 27 January 2021 00:00
Orbit: 750 x 1438 km, 63.4° (Epoch: 11 January)

Date Brightness Start Highest point End Pass type
(mag) Time Alt. Az. Time Alt. Az. Time Alt. Az.
17 Jan 5.3 06:02:58 10° SSE 06:07:17 22° ESE 06:12:07 10° ENE visible
17 Jan 5.5 17:11:03 10° WNW 17:17:44 27° WSW 17:24:45 10° SSW visible
18 Jan 5.9 05:17:47 10° ESE 05:19:42 12° E 05:21:41 10° E visible
19 Jan 4.0 06:15:17 10° S 06:20:42 43° ESE 06:27:04 10° NE visible
19 Jan 6.3 17:26:57 10° WNW 17:31:09 15° WSW 17:35:28 10° SW visible
20 Jan 4.9 05:28:16 10° SSE 05:32:53 25° ESE 05:38:07 10° ENE visible
20 Jan 5.9 16:37:01 10° WNW 16:43:23 25° WSW 16:50:02 10° SSW visible
21 Jan 5.4 04:42:28 10° SE 04:45:16 14° ESE 04:48:15 10° ENE visible
22 Jan 3.6 05:40:50 10° S 05:46:22 48° ESE 05:52:54 10° NE visible
22 Jan 6.4 16:53:27 10° WNW 16:56:45 13° WSW 17:00:07 10° SW visible
23 Jan 4.5 04:53:39 10° SSE 04:58:31 28° ESE 05:04:03 10° NE visible
24 Jan 5.1 04:07:26 10° SE 04:10:51 16° ESE 04:14:31 10° ENE visible
24 Jan 2.6 05:54:19 10° SW 06:00:11 87° SE 06:07:15 10° NE visible
25 Jan 3.2 05:06:25 10° SSW 05:12:03 54° ESE 05:18:43 10° NE visible
26 Jan 4.1 04:19:04 10° S 04:24:08 32° ESE 04:29:58 10° NE visible
26 Jan 2.7 06:08:27 10° WSW 06:14:21 56° NW 06:21:26 10° NE visible
